TimePST,TemperatureF,Dew PointF,Humidity,Sea Level PressureIn,VisibilityMPH,Wind Direction,Wind SpeedMPH,Gust SpeedMPH,PrecipitationIn,Events,Conditions,WindDirDegrees,DateUTC
12:53 AM,7.0,3.0,84,30.48,9.0,Calm,Calm,-,N/A,,Clear,0,2013-01-19 08:53:00
1:53 AM,6.1,3.9,91,30.49,7.0,Calm,Calm,-,N/A,,Clear,0,2013-01-19 09:53:00
2:53 AM,3.9,3.0,96,30.50,6.0,Calm,Calm,-,N/A,,Clear,0,2013-01-19 10:53:00
3:53 AM,3.9,3.0,96,30.50,9.0,Calm,Calm,-,N/A,,Clear,0,2013-01-19 11:53:00
4:53 AM,3.0,-0.0,87,30.51,10.0,Calm,Calm,-,N/A,,Clear,0,2013-01-19 12:53:00
5:53 AM,1.0,-2.0,87,30.57,9.0,Calm,Calm,-,N/A,,Clear,0,2013-01-19 13:53:00
6:01 AM,1.4,-2.2,85,30.38,7.0,Calm,Calm,-,N/A,Fog,Patches of Fog,0,2013-01-19 14:01:00
6:37 AM,-0.4,-2.2,92,30.38,7.0,Calm,Calm,-,N/A,Fog,Patches of Fog,0,2013-01-19 14:37:00
6:45 AM,1.4,-2.2,85,30.39,3.0,Calm,Calm,-,N/A,,Mostly Cloudy,0,2013-01-19 14:45:00
6:53 AM,-0.0,-2.9,88,30.58,3.0,Calm,Calm,-,N/A,,Mostly Cloudy,0,2013-01-19 14:53:00
7:15 AM,-0.4,-2.2,92,30.38,7.0,Calm,Calm,-,N/A,Fog,Patches of Fog,0,2013-01-19 15:15:00
7:53 AM,-0.9,-5.1,83,30.58,7.0,Calm,Calm,-,N/A,Fog,Patches of Fog,0,2013-01-19 15:53:00
8:53 AM,6.1,5.0,95,30.59,10.0,Calm,Calm,-,N/A,,Clear,0,2013-01-19 16:53:00
9:53 AM,10.9,9.0,92,30.59,10.0,Calm,Calm,-,N/A,,Clear,0,2013-01-19 17:53:00
10:53 AM,19.0,15.1,85,30.57,10.0,Calm,Calm,-,N/A,,Clear,0,2013-01-19 18:53:00
11:53 AM,27.0,15.1,61,30.52,10.0,Calm,Calm,-,N/A,,Clear,0,2013-01-19 19:53:00
12:53 PM,28.0,17.1,63,30.49,10.0,Calm,Calm,-,N/A,,Partly Cloudy,0,2013-01-19 20:53:00
1:53 PM,32.0,16.0,52,30.46,10.0,Calm,Calm,-,N/A,,Partly Cloudy,0,2013-01-19 21:53:00
2:53 PM,32.0,17.1,54,30.45,10.0,Calm,Calm,-,N/A,,Scattered Clouds,0,2013-01-19 22:53:00
3:53 PM,32.0,18.0,56,30.45,10.0,Calm,Calm,-,N/A,,Scattered Clouds,0,2013-01-19 23:53:00
4:53 PM,28.0,16.0,61,30.46,10.0,Calm,Calm,-,N/A,,Scattered Clouds,0,2013-01-20 00:53:00
5:53 PM,18.0,12.9,81,30.49,10.0,Calm,Calm,-,N/A,,Partly Cloudy,0,2013-01-20 01:53:00
6:53 PM,17.1,12.0,81,30.51,10.0,Calm,Calm,-,N/A,,Partly Cloudy,0,2013-01-20 02:53:00
7:53 PM,12.0,9.0,88,30.55,10.0,Calm,Calm,-,N/A,,Clear,0,2013-01-20 03:53:00
8:53 PM,9.0,6.1,88,30.53,10.0,Calm,Calm,-,N/A,,Clear,0,2013-01-20 04:53:00
9:53 PM,7.0,5.0,92,30.53,10.0,Calm,Calm,-,N/A,,Clear,0,2013-01-20 05:53:00
10:53 PM,9.0,6.1,88,30.52,10.0,Calm,Calm,-,N/A,,Clear,0,2013-01-20 06:53:00
11:53 PM,7.0,3.0,84,30.51,10.0,Calm,Calm,-,N/A,,Clear,0,2013-01-20 07:53:00